TimeMDT,TemperatureF,Dew PointF,Humidity,Sea Level PressureIn,VisibilityMPH,Wind Direction,Wind SpeedMPH,Gust SpeedMPH,PrecipitationIn,Events,Conditions,WindDirDegrees,DateUTC
12:53 AM,46.9,37.0,68,29.49,10.0,North,5.8,-,N/A,,Clear,10,2013-09-26 06:53:00
1:53 AM,46.0,36.0,68,29.51,10.0,NNW,12.7,-,N/A,,Clear,330,2013-09-26 07:53:00
2:53 AM,45.0,35.1,68,29.53,10.0,NNE,11.5,-,N/A,,Clear,20,2013-09-26 08:53:00
3:53 AM,43.0,35.1,74,29.55,10.0,NNW,17.3,27.6,N/A,,Clear,330,2013-09-26 09:53:00
4:53 AM,41.0,35.1,79,29.59,10.0,NNW,10.4,18.4,N/A,,Clear,340,2013-09-26 10:53:00
5:53 AM,41.0,35.1,79,29.61,10.0,North,5.8,-,N/A,,Clear,10,2013-09-26 11:53:00
6:53 AM,39.9,35.1,83,29.66,10.0,Calm,Calm,-,N/A,,Clear,0,2013-09-26 12:53:00
7:53 AM,43.0,35.1,74,29.68,10.0,NNW,5.8,-,N/A,,Clear,330,2013-09-26 13:53:00
8:53 AM,48.0,36.0,63,29.68,10.0,Calm,Calm,-,N/A,,Clear,0,2013-09-26 14:53:00
9:53 AM,52.0,37.0,57,29.69,10.0,Calm,Calm,-,N/A,,Clear,0,2013-09-26 15:53:00
10:53 AM,55.9,39.0,53,29.68,10.0,South,5.8,-,N/A,,Clear,180,2013-09-26 16:53:00
11:53 AM,59.0,39.0,48,29.67,10.0,East,6.9,-,N/A,,Clear,100,2013-09-26 17:53:00
12:53 PM,62.1,39.0,43,29.65,10.0,SE,10.4,17.3,N/A,,Clear,130,2013-09-26 18:53:00
1:53 PM,64.0,42.1,45,29.63,10.0,East,6.9,18.4,N/A,,Clear,100,2013-09-26 19:53:00
2:53 PM,64.9,42.1,43,29.62,10.0,SE,13.8,19.6,N/A,,Clear,130,2013-09-26 20:53:00
3:53 PM,64.9,42.1,43,29.63,10.0,ESE,18.4,21.9,N/A,,Clear,110,2013-09-26 21:53:00
4:53 PM,64.0,43.0,46,29.64,10.0,SE,10.4,19.6,N/A,,Partly Cloudy,130,2013-09-26 22:53:00
5:53 PM,62.1,45.0,53,29.65,10.0,ESE,13.8,-,N/A,,Mostly Cloudy,110,2013-09-26 23:53:00
6:53 PM,59.0,46.9,64,29.68,10.0,East,6.9,-,N/A,,Overcast,100,2013-09-27 00:53:00
7:53 PM,57.9,48.0,70,29.68,10.0,East,5.8,-,N/A,,Overcast,100,2013-09-27 01:53:00
8:53 PM,55.0,46.9,74,29.65,10.0,East,5.8,-,N/A,,Clear,100,2013-09-27 02:53:00
9:53 PM,55.0,46.9,74,29.65,10.0,NE,3.5,-,N/A,,Mostly Cloudy,50,2013-09-27 03:53:00
10:53 PM,53.1,48.9,86,29.65,10.0,East,9.2,-,N/A,,Clear,90,2013-09-27 04:53:00
11:53 PM,51.1,48.0,89,29.65,10.0,ENE,6.9,-,N/A,,Mostly Cloudy,60,2013-09-27 05:53:00